KC7O Weather Reports


Display with metric or nautical units.
time (UTC)temp
F
wind
direction
speed
MPH
gust
MPH
rain 1hr
in
rain 24hr
in
rain mn
in
humidity
%
barometer
mb
20260901043842 70 130 0.0 0.0 0.00 0.00 0.00 68 1012.2
20260901042841 71 130 0.0 0.0 0.00 0.00 0.00 68 1012.1
20260901042323 71 130 0.0 0.0 0.00 0.00 0.00 68 1012.0
20260901041824 71 130 0.0 0.0 0.00 0.00 0.00 68 1012.0
20260901040821 71 130 0.0 0.0 0.00 0.00 0.00 67 1012.0
20260901035828 72 108 0.0 0.0 0.00 0.00 0.00 65 1011.8
20260901035331 72 69 0.0 0.0 0.00 0.00 0.00 64 1011.7
20260901034829 72 63 0.0 0.0 0.00 0.00 0.00 64 1011.6
20260901034329 72 267 0.0 0.0 0.00 0.00 0.00 63 1011.4
20260901033831 72 267 0.0 0.0 0.00 0.00 0.00 63 1011.3
20260901033332 72 267 0.0 0.0 0.00 0.00 0.00 63 1011.3
20260901032832 72 267 0.0 0.0 0.00 0.00 0.00 63 1011.3
20260901032334 73 267 0.0 0.0 0.00 0.00 0.00 62 1011.1
20260901031833 73 267 0.0 0.0 0.00 0.00 0.00 61 1010.9
20260901031356 74 267 0.0 0.0 0.00 0.00 0.00 60 1010.9
20260901030833 74 267 0.0 0.0 0.00 0.00 0.00 59 1010.8
20260901030322 75 267 0.0 0.0 0.00 0.00 0.00 59 1010.9
20260901025823 75 267 0.0 0.0 0.00 0.00 0.00 58 1010.9
20260901025324 75 267 0.0 0.0 0.00 0.00 0.00 57 1011.0
20260901024826 76 273 0.0 0.0 0.00 0.00 0.00 57 1011.1
20260901024328 76 273 0.0 0.0 0.00 0.00 0.00 56 1011.0
20260901023830 76 273 0.0 0.0 0.00 0.00 0.00 55 1011.0
20260901023330 77 257 0.0 0.0 0.00 0.00 0.00 55 1011.0
20260901022829 77 269 0.0 0.0 0.00 0.00 0.00 54 1011.0
20260901022352 77 279 0.0 0.0 0.00 0.00 0.00 54 1010.9
20260901021829 78 259 0.0 0.0 0.00 0.00 0.00 54 1010.9
20260901021329 78 242 0.0 1.0 0.00 0.00 0.00 53 1010.9
20260901020829 78 259 0.0 2.0 0.00 0.00 0.00 53 1010.8
20260901020331 79 272 1.0 2.0 0.00 0.00 0.00 53 1010.9
20260901015834 79 212 0.0 2.0 0.00 0.00 0.00 53 1010.9
20260901015334 79 273 0.0 2.0 0.00 0.00 0.00 52 1010.9
20260901014820 80 230 1.0 3.0 0.00 0.00 0.00 52 1010.7
20260901014323 80 258 0.0 3.0 0.00 0.00 0.00 53 1010.8
20260901013826 81 232 0.0 3.0 0.00 0.00 0.00 53 1010.7
20260901013326 81 261 1.0 3.0 0.00 0.00 0.00 52 1010.8
20260901012847 81 252 0.0 3.0 0.00 0.00 0.00 51 1010.8
20260901012327 82 143 1.0 3.0 0.00 0.00 0.00 51 1010.9
20260901011826 82 278 1.0 2.0 0.00 0.00 0.00 51 1010.8
20260901011347 82 257 1.0 5.0 0.00 0.00 0.00 50 1010.8
20260901010850 82 248 2.0 5.0 0.00 0.00 0.00 47 1010.8
20260901010330 82 154 1.0 5.0 0.00 0.00 0.00 47 1010.9
20260901005830 83 259 2.0 5.0 0.00 0.00 0.00 48 1010.9
20260901005334 83 156 2.0 5.0 0.00 0.00 0.00 48 1011.0
20260901004837 83 172 1.0 6.0 0.00 0.00 0.00 47 1010.9
20260901003836 84 259 2.0 7.0 0.00 0.00 0.00 47 1010.8
20260901003323 83 166 1.0 7.0 0.00 0.00 0.00 48 1010.8
20260901002821 84 161 2.0 6.0 0.00 0.00 0.00 48 1010.8
20260901002321 84 255 2.0 6.0 0.00 0.00 0.00 47 1010.9
20260901001822 84 239 3.0 6.0 0.00 0.00 0.00 47 1010.9
20260901001342 84 215 2.0 5.0 0.00 0.00 0.00 47 1010.9
20260901000822 84 224 2.0 6.0 0.00 0.00 0.00 47 1010.9
20260901000324 84 176 2.0 7.0 0.00 0.00 0.00 47 1011.0
20260831235824 84 188 1.0 8.0 0.00 0.00 0.00 48 1010.9
20260831235345 85 174 2.0 8.0 0.00 0.00 0.00 48 1010.9
20260831234822 85 131 2.0 6.0 0.00 0.00 0.00 48 1010.8
20260831234343 85 150 2.0 6.0 0.00 0.00 0.00 48 1010.8
20260831233842 85 172 3.0 6.0 0.00 0.00 0.00 49 1010.7
20260831233322 85 250 3.0 7.0 0.00 0.00 0.00 50 1010.8
20260831232824 85 162 3.0 7.0 0.00 0.00 0.00 50 1010.8
20260831232322 85 253 2.0 7.0 0.00 0.00 0.00 50 1010.7
20260831231823 85 146 3.0 7.0 0.00 0.00 0.00 51 1010.7
20260831231341 85 252 1.0 5.0 0.00 0.00 0.00 52 1010.7
20260831230819 85 178 2.0 5.0 0.00 0.00 0.00 52 1010.9
20260831230325 85 148 2.0 6.0 0.00 0.00 0.00 53 1011.0
20260831225823 85 281 2.0 6.0 0.00 0.00 0.00 53 1010.9
20260831225341 86 264 2.0 6.0 0.00 0.00 0.00 52 1011.0
20260831224839 85 155 3.0 6.0 0.00 0.00 0.00 52 1011.1
20260831224318 86 258 3.0 6.0 0.00 0.00 0.00 52 1011.1
20260831223818 86 203 3.0 6.0 0.00 0.00 0.00 52 1011.1
20260831223319 86 180 1.0 5.0 0.00 0.00 0.00 52 1011.0
20260831222821 87 176 2.0 6.0 0.00 0.00 0.00 52 1011.1
20260831222322 87 169 2.0 6.0 0.00 0.00 0.00 51 1011.1
20260831221342 87 129 2.0 7.0 0.00 0.00 0.00 52 1011.2
20260831220823 87 171 3.0 7.0 0.00 0.00 0.00 51 1011.3
20260831220323 88 263 2.0 7.0 0.00 0.00 0.00 51 1011.3
20260831215322 88 224 2.0 8.0 0.00 0.00 0.00 50 1011.3
20260831214824 88 183 2.0 6.0 0.00 0.00 0.00 49 1011.4
20260831214326 88 211 1.0 6.0 0.00 0.00 0.00 48 1011.4
20260831213831 88 247 3.0 6.0 0.00 0.00 0.00 46 1011.6
20260831213330 89 174 1.0 6.0 0.00 0.00 0.00 44 1011.6
20260831212831 89 236 1.0 5.0 0.00 0.00 0.00 44 1011.6
20260831212333 89 181 2.0 8.0 0.00 0.00 0.00 41 1011.7
20260831211835 89 144 3.0 8.0 0.00 0.00 0.00 42 1011.7
20260831211334 89 145 2.0 7.0 0.00 0.00 0.00 45 1011.7
20260831210856 88 223 2.0 6.0 0.00 0.00 0.00 45 1011.6
20260831210333 88 250 2.0 7.0 0.00 0.00 0.00 46 1011.7
20260831205833 88 160 3.0 7.0 0.00 0.00 0.00 45 1011.7
20260831205333 88 153 2.0 5.0 0.00 0.00 0.00 47 1011.7
20260831204855 88 228 2.0 4.0 0.00 0.00 0.00 47 1011.7
20260831204333 87 84 2.0 5.0 0.00 0.00 0.00 48 1011.7
20260831203834 87 171 2.0 5.0 0.00 0.00 0.00 48 1011.8
20260831203333 87 232 2.0 5.0 0.00 0.00 0.00 52 1011.8
20260831202819 86 105 3.0 6.0 0.00 0.00 0.00 50 1011.8
20260831202319 87 129 3.0 6.0 0.00 0.00 0.00 51 1012.1
20260831201819 86 180 2.0 6.0 0.00 0.00 0.00 52 1012.0
20260831201339 87 285 1.0 6.0 0.00 0.00 0.00 53 1012.1
20260831200838 87 212 2.0 6.0 0.00 0.00 0.00 52 1012.1
20260831200339 87 172 1.0 6.0 0.00 0.00 0.00 54 1012.1
20260831195837 86 224 4.0 6.0 0.00 0.00 0.00 54 1012.1
20260831195336 86 141 2.0 6.0 0.00 0.00 0.00 56 1012.0
20260831194832 85 266 1.0 4.0 0.00 0.00 0.00 58 1012.1
20260831194334 85 267 1.0 4.0 0.00 0.00 0.00 57 1012.3
20260831193831 85 244 2.0 6.0 0.00 0.00 0.00 58 1012.3
20260831193330 85 151 3.0 6.0 0.00 0.00 0.00 59 1012.3
20260831192851 84 163 2.0 6.0 0.00 0.00 0.00 60 1012.3
20260831192332 84 269 2.0 4.0 0.00 0.00 0.00 60 1012.3
20260831191831 84 243 2.0 6.0 0.00 0.00 0.00 60 1012.4
20260831191332 84 219 2.0 6.0 0.00 0.00 0.00 61 1012.5
20260831190832 83 244 3.0 6.0 0.00 0.00 0.00 61 1012.4
20260831190351 84 52 2.0 6.0 0.00 0.00 0.00 60 1012.5
20260831185332 83 205 2.0 5.0 0.00 0.00 0.00 62 1012.5
20260831184829 83 157 1.0 5.0 0.00 0.00 0.00 62 1012.5
20260831184327 84 144 2.0 5.0 0.00 0.00 0.00 62 1012.6
20260831183827 83 127 0.0 5.0 0.00 0.00 0.00 64 1012.5
20260831182832 83 134 1.0 4.0 0.00 0.00 0.00 63 1012.6
20260831182333 82 239 2.0 5.0 0.00 0.00 0.00 63 1012.6
20260831181833 82 158 2.0 5.0 0.00 0.00 0.00 63 1012.7
20260831180833 82 216 1.0 5.0 0.00 0.00 0.00 64 1012.7
20260831175824 82 203 2.0 4.0 0.00 0.00 0.00 64 1012.7
20260831175326 81 270 0.0 3.0 0.00 0.00 0.00 65 1012.7
20260831174825 81 162 1.0 4.0 0.00 0.00 0.00 64 1012.7
20260831174324 81 153 2.0 4.0 0.00 0.00 0.00 64 1012.7
20260831164331 78 198 0.0 3.0 0.00 0.00 0.00 67 1012.4
20260831163828 78 132 1.0 3.0 0.00 0.00 0.00 67 1012.4
20260831163327 78 188 1.0 3.0 0.00 0.00 0.00 68 1012.4
20260831162824 77 237 1.0 3.0 0.00 0.00 0.00 69 1012.4
20260831162325 77 248 0.0 3.0 0.00 0.00 0.00 69 1012.4
20260831161826 77 167 0.0 3.0 0.00 0.00 0.00 69 1012.4
20260831161325 76 162 1.0 3.0 0.00 0.00 0.00 70 1012.4
20260831160824 76 153 2.0 3.0 0.00 0.00 0.00 69 1012.4
20260831160328 76 253 0.0 3.0 0.00 0.00 0.00 71 1012.3
20260831155823 76 188 2.0 3.0 0.00 0.00 0.00 71 1012.4
20260831155324 75 214 0.0 2.0 0.00 0.00 0.00 71 1012.3
20260831154822 75 224 0.0 3.0 0.00 0.00 0.00 71 1012.2
20260831154322 75 212 1.0 3.0 0.00 0.00 0.00 72 1012.2
20260831153819 75 171 1.0 2.0 0.00 0.00 0.00 72 1012.2
20260831153358 75 228 0.0 1.0 0.00 0.00 0.00 73 1012.3
20260831152857 75 228 0.0 1.0 0.00 0.00 0.00 72 1012.2
20260831152354 75 134 0.0 2.0 0.00 0.00 0.00 71 1012.3
20260831151853 75 134 0.0 2.0 0.00 0.00 0.00 72 1012.2
20260831151332 75 170 1.0 2.0 0.00 0.00 0.00 71 1012.2
20260831150832 75 160 0.0 2.0 0.00 0.00 0.00 72 1012.3
20260831150331 74 160 0.0 2.0 0.00 0.00 0.00 73 1012.2
20260831145831 74 150 0.0 0.0 0.00 0.00 0.00 75 1012.1
20260831145331 73 149 0.0 0.0 0.00 0.00 0.00 76 1012.1
20260831144831 72 149 0.0 0.0 0.00 0.00 0.00 77 1012.1
20260831144332 71 149 0.0 0.0 0.00 0.00 0.00 79 1012.1
20260831143831 71 149 0.0 0.0 0.00 0.00 0.00 80 1012.0
20260831143330 70 150 0.0 0.0 0.00 0.00 0.00 83 1012.0
20260831142332 69 148 0.0 0.0 0.00 0.00 0.00 85 1011.8
20260831141831 67 148 0.0 0.0 0.00 0.00 0.00 87 1011.7
20260831141345 66 148 0.0 0.0 0.00 0.00 0.00 87 1011.7
20260831140825 66 148 0.0 0.0 0.00 0.00 0.00 87 1011.7
20260831140323 65 148 0.0 0.0 0.00 0.00 0.00 86 1011.6
20260831135819 65 148 0.0 0.0 0.00 0.00 0.00 86 1011.5
20260831135338 65 148 0.0 0.0 0.00 0.00 0.00 86 1011.5
20260831134840 65 148 0.0 0.0 0.00 0.00 0.00 86 1011.4
20260831134337 65 148 0.0 0.0 0.00 0.00 0.00 86 1011.3
20260831133836 65 148 0.0 0.0 0.00 0.00 0.00 86 1011.2
20260831133334 65 148 0.0 0.0 0.00 0.00 0.00 86 1011.2
20260831132834 65 148 0.0 0.0 0.00 0.00 0.00 86 1011.1
20260831132333 65 148 0.0 0.0 0.00 0.00 0.00 86 1011.1
20260831131830 65 148 0.0 0.0 0.00 0.00 0.00 86 1011.1
20260831131327 65 148 0.0 0.0 0.00 0.00 0.00 86 1011.1
20260831130828 65 148 0.0 0.0 0.00 0.00 0.00 86 1011.1
20260831130327 65 148 0.0 0.0 0.00 0.00 0.00 85 1011.0
20260831125849 65 148 0.0 0.0 0.00 0.00 0.00 85 1011.0
20260831125329 65 148 0.0 0.0 0.00 0.00 0.00 85 1011.0
20260831124828 65 148 0.0 0.0 0.00 0.00 0.00 85 1011.1
20260831124344 66 148 0.0 0.0 0.00 0.00 0.00 84 1011.0
20260831123824 66 148 0.0 0.0 0.00 0.00 0.00 84 1011.0
20260831123321 66 148 0.0 0.0 0.00 0.00 0.00 84 1011.0
20260831122821 66 148 0.0 0.0 0.00 0.00 0.00 85 1011.0
20260831122337 66 148 0.0 0.0 0.00 0.00 0.00 84 1010.9
20260831121819 66 148 0.0 0.0 0.00 0.00 0.00 84 1011.0
20260831121338 66 148 0.0 0.0 0.00 0.00 0.00 84 1011.0
20260831120818 66 148 0.0 0.0 0.00 0.00 0.00 83 1011.0
20260831120359 66 148 0.0 0.0 0.00 0.00 0.00 83 1011.0
20260831115837 66 148 0.0 0.0 0.00 0.00 0.00 83 1011.0
20260831115336 66 148 0.0 0.0 0.00 0.00 0.00 83 1011.0
20260831114837 66 148 0.0 0.0 0.00 0.00 0.00 82 1011.0
20260831114335 67 148 0.0 0.0 0.00 0.00 0.00 82 1011.0
20260831113837 67 148 0.0 0.0 0.00 0.00 0.00 82 1011.0
20260831113337 67 148 0.0 0.0 0.00 0.00 0.00 82 1011.0
20260831112822 67 148 0.0 0.0 0.00 0.00 0.00 82 1011.0
20260831112323 67 148 0.0 0.0 0.00 0.00 0.00 82 1011.0
20260831111844 67 148 0.0 0.0 0.00 0.00 0.00 82 1011.1
20260831111321 67 148 0.0 0.0 0.00 0.00 0.00 82 1011.1
20260831110821 67 148 0.0 0.0 0.00 0.00 0.00 81 1011.0
20260831110322 67 148 0.0 0.0 0.00 0.00 0.00 81 1011.0
20260831105820 67 148 0.0 0.0 0.00 0.00 0.00 81 1011.0
20260831105319 67 148 0.0 0.0 0.00 0.00 0.00 81 1011.0
20260831104842 68 148 0.0 0.0 0.00 0.00 0.00 80 1011.0
20260831104321 68 148 0.0 0.0 0.00 0.00 0.00 80 1011.1
20260831103823 68 148 0.0 0.0 0.00 0.00 0.00 80 1011.0
20260831103322 68 148 0.0 0.0 0.00 0.00 0.00 80 1011.1
20260831102821 68 148 0.0 0.0 0.00 0.00 0.00 80 1011.1
20260831102320 68 148 0.0 0.0 0.00 0.00 0.00 80 1011.1
20260831101820 68 148 0.0 0.0 0.00 0.00 0.00 80 1011.2
20260831101337 68 148 0.0 0.0 0.00 0.00 0.00 80 1011.1
20260831100820 68 148 0.0 0.0 0.00 0.00 0.00 79 1011.2
20260831100319 68 148 0.0 0.0 0.00 0.00 0.00 79 1011.1
20260831095819 68 148 0.0 0.0 0.00 0.00 0.00 80 1011.1
20260831095333 68 148 0.0 0.0 0.00 0.00 0.00 79 1011.1
20260831094834 68 148 0.0 0.0 0.00 0.00 0.00 79 1011.1
20260831094353 68 148 0.0 0.0 0.00 0.00 0.00 79 1011.1
20260831093832 68 148 0.0 0.0 0.00 0.00 0.00 79 1011.1
20260831093329 68 148 0.0 0.0 0.00 0.00 0.00 79 1011.1
20260831092827 69 148 0.0 0.0 0.00 0.00 0.00 78 1011.1
20260831092347 69 148 0.0 0.0 0.00 0.00 0.00 79 1011.0
20260831091823 69 148 0.0 0.0 0.00 0.00 0.00 78 1011.0
20260831091320 69 148 0.0 0.0 0.00 0.00 0.00 79 1011.0
20260831090820 69 148 0.0 0.0 0.00 0.00 0.00 79 1011.0
20260831090338 69 148 0.0 0.0 0.00 0.00 0.00 79 1011.0
20260831085858 69 148 0.0 0.0 0.00 0.00 0.00 79 1011.0
20260831085333 69 148 0.0 0.0 0.00 0.00 0.00 78 1011.1
20260831084830 69 148 0.0 0.0 0.00 0.00 0.00 78 1011.1
20260831084322 69 148 0.0 0.0 0.00 0.00 0.00 79 1011.1
20260831083820 69 148 0.0 0.0 0.00 0.00 0.00 78 1011.1
20260831083341 69 148 0.0 0.0 0.00 0.00 0.00 79 1011.1
20260831082823 69 148 0.0 0.0 0.00 0.00 0.00 78 1011.1
20260831082338 69 148 0.0 0.0 0.00 0.00 0.00 78 1011.1
20260831081834 69 148 0.0 0.0 0.00 0.00 0.00 78 1011.1
20260831081355 69 148 0.0 0.0 0.00 0.00 0.00 77 1011.0
20260831080830 69 148 0.0 0.0 0.00 0.00 0.00 78 1011.1
20260831080328 69 148 0.0 0.0 0.00 0.00 0.00 78 1011.1
20260831075845 69 148 0.0 0.0 0.00 0.00 0.00 78 1011.2
20260831075323 69 148 0.0 0.0 0.00 0.00 0.00 78 1011.2
20260831074822 69 148 0.0 0.0 0.00 0.00 0.00 78 1011.2
20260831074321 69 148 0.0 0.0 0.00 0.00 0.00 78 1011.1
20260831073821 69 148 0.0 0.0 0.00 0.00 0.00 78 1011.2
20260831073320 69 148 0.0 0.0 0.00 0.00 0.00 77 1011.1
20260831072820 70 148 0.0 0.0 0.00 0.00 0.00 77 1011.1
20260831072320 70 148 0.0 0.0 0.00 0.00 0.00 77 1011.1
20260831071821 70 148 0.0 0.0 0.00 0.00 0.00 76 1011.0
20260831071323 70 148 0.0 0.0 0.00 0.00 0.00 76 1011.0
20260831070845 70 148 0.0 0.0 0.00 0.00 0.00 76 1010.9
20260831070325 70 148 0.0 0.0 0.00 0.00 0.00 76 1010.9
20260831065847 70 148 0.0 0.0 0.00 0.00 0.00 75 1010.9
20260831065327 70 148 0.0 0.0 0.00 0.00 0.00 75 1010.8
20260831064827 71 148 0.0 0.0 0.00 0.00 0.00 74 1010.8
20260831064329 71 148 0.0 0.0 0.00 0.00 0.00 74 1010.8
20260831063829 71 148 0.0 0.0 0.00 0.00 0.00 74 1010.8
20260831063327 71 148 0.0 0.0 0.00 0.00 0.00 73 1010.8
20260831062826 71 148 0.0 0.0 0.00 0.00 0.00 73 1010.9
20260831062347 72 148 0.0 0.0 0.00 0.00 0.00 73 1010.9
20260831061829 72 148 0.0 0.0 0.00 0.00 0.00 72 1010.9
20260831061331 72 148 0.0 0.0 0.00 0.00 0.00 72 1010.9
20260831060831 72 152 0.0 0.0 0.00 0.00 0.00 72 1010.9
20260831060353 72 150 0.0 0.0 0.00 0.00 0.00 71 1010.9
20260831055836 72 151 0.0 0.0 0.00 0.00 0.00 71 1010.9
20260831055333 72 151 0.0 0.0 0.00 0.00 0.00 70 1010.9
20260831054837 72 151 0.0 0.0 0.00 0.00 0.00 70 1010.9
20260831054336 73 151 0.0 0.0 0.00 0.00 0.00 70 1010.8
20260831053839 73 151 0.0 0.0 0.00 0.00 0.00 70 1010.9
20260831053333 73 151 0.0 0.0 0.00 0.00 0.00 69 1010.9
20260831052834 73 151 0.0 0.0 0.00 0.00 0.00 69 1010.9
20260831052333 73 151 0.0 0.0 0.00 0.00 0.00 69 1010.9
20260831051859 74 151 0.0 0.0 0.00 0.00 0.00 69 1010.9
20260831051329 74 148 0.0 0.0 0.00 0.00 0.00 69 1010.9
20260831050833 74 143 0.0 0.0 0.00 0.00 0.00 69 1010.9
20260831050335 74 143 0.0 0.0 0.00 0.00 0.00 68 1010.9
20260831045838 74 160 0.0 0.0 0.00 0.00 0.00 68 1010.8
20260831045338 74 86 0.0 0.0 0.00 0.00 0.00 68 1010.8
20260831044820 74 86 0.0 0.0 0.00 0.00 0.00 68 1010.6
20260831044320 75 86 0.0 0.0 0.00 0.00 0.00 69 1010.6